Soldotna, AK

1:04 PM AKDT on July 28, 2016 (GMT -0800)
Soldotna

Weather History for PASX - January, 2013

Change the Weather History Date:

Friday, January 25, 2013

  Actual Average Record
Temperature  
Mean Temperature 14 °F -  
Max Temperature 35 °F 20 °F 44 °F (2014)
Min Temperature -9 °F 4 °F -44 °F (1973)
Degree Days  
Heating Degree Days 51    
Moisture  
Dew Point 9 °F    
Average Humidity 67    
Maximum Humidity 84    
Minimum Humidity 42    
Precipitation  
Precipitation 0.00 in - - ()
Sea Level Pressure  
Sea Level Pressure 29.48 in    
Wind  
Wind Speed 9 mph (East)    
Max Wind Speed 16 mph    
Max Gust Speed 24 mph    
Visibility 10 miles    
Events      
Averages and records for this station are not official NWS values.
T = Trace of Precipitation, MM = Missing Value Source: NWS Daily Summary

Daily Weather History Graph

Daily Weather History Graph

Search for Another Location

Airport or City:

Trip Planner

Search our weather history database for the weather conditions in past years. The results will help you decide how hot, cold, wet, or windy it might be!

Date:

Astronomy

Jan. 25, 2013 Rise Set
Actual Time 9:35 AM AKST 4:58 PM AKST
Civil Twilight 8:45 AM AKST 5:48 PM AKST
Nautical Twilight 7:52 AM AKST 6:41 PM AKST
Astronomical Twilight 7:02 AM AKST 7:31 PM AKST
Moon 4:07 PM AKST (1/25) 8:22 AM AKST (1/25)
Length of Visible Light 9h 03m
Length of Day
7h 23m
Waxing Gibbous, 98% of the Moon is Illuminated
Jan 25
Waxing Gibbous
Jan 26
Full
Feb 3
Last Quarter
Feb 9
New
Feb 17
First Quarter

Hourly Weather History & Observations

Time (AKST) Temp. Windchill Dew Point Humidity Pressure Visibility Wind Dir Wind Speed Gust Speed Precip Events Conditions
12:16 AM 35.6 °F 27.5 °F 30.2 °F 81% 29.36 in 10.0 mi SSW 11.5 mph 19.6 mph N/A   Overcast
12:36 AM 35.6 °F 29.2 °F 30.2 °F 81% 29.36 in 10.0 mi SSW 8.1 mph 21.9 mph N/A   Overcast
12:56 AM 35.6 °F 27.5 °F 30.2 °F 81% 29.35 in 10.0 mi SSW 11.5 mph 18.4 mph N/A   Overcast
1:16 AM 35.6 °F 28.0 °F 30.2 °F 81% 29.35 in 10.0 mi SSW 10.4 mph 23.0 mph N/A   Overcast
1:36 AM 35.6 °F 28.0 °F 30.2 °F 81% 29.35 in 10.0 mi SSW 10.4 mph 20.7 mph N/A   Overcast
1:56 AM 35.6 °F 27.1 °F 30.2 °F 81% 29.34 in 10.0 mi SSW 12.7 mph 21.9 mph N/A   Overcast
2:16 AM 35.6 °F 27.5 °F 30.2 °F 81% 29.34 in 10.0 mi SSW 11.5 mph 21.9 mph N/A   Mostly Cloudy
2:56 AM 35.6 °F 27.5 °F 30.2 °F 81% 29.32 in 10.0 mi SSW 11.5 mph 21.9 mph N/A   Mostly Cloudy
3:16 AM 35.6 °F 26.6 °F 30.2 °F 81% 29.32 in 10.0 mi SSW 13.8 mph 24.2 mph N/A   Partly Cloudy
3:36 AM 35.6 °F 27.1 °F 30.2 °F 81% 29.32 in 10.0 mi SSW 12.7 mph 19.6 mph N/A   Clear
3:56 AM 35.6 °F 27.5 °F 30.2 °F 81% 29.32 in 10.0 mi SSW 11.5 mph 17.3 mph N/A   Clear
4:16 AM 35.6 °F 25.9 °F 30.2 °F 81% 29.31 in 10.0 mi SSW 16.1 mph 23.0 mph N/A   Clear
4:36 AM 35.6 °F 27.5 °F 28.4 °F 75% 29.31 in 10.0 mi SSW 11.5 mph 19.6 mph N/A   Clear
4:56 AM 33.8 °F 25.3 °F 28.4 °F 81% 29.30 in 10.0 mi SSW 11.5 mph 19.6 mph N/A   Clear
5:16 AM 33.8 °F 24.8 °F 26.6 °F 75% 29.30 in 10.0 mi SSW 12.7 mph 17.3 mph N/A   Clear
5:36 AM 33.8 °F 25.8 °F 26.6 °F 75% 29.30 in 10.0 mi SSW 10.4 mph - N/A   Clear
5:56 AM 32.0 °F 24.2 °F 26.6 °F 80% 29.31 in 10.0 mi SSW 9.2 mph - N/A   Clear
6:16 AM 32.0 °F 27.5 °F 26.6 °F 80% 29.31 in 10.0 mi SSW 4.6 mph - N/A   Clear
6:36 AM 30.2 °F 24.3 °F 24.8 °F 80% 29.32 in 10.0 mi South 5.8 mph - N/A   Clear
6:56 AM 30.2 °F 24.3 °F 24.8 °F 80% 29.33 in 10.0 mi SSW 5.8 mph - N/A   Clear
7:16 AM 30.2 °F - 24.8 °F 80% 29.34 in 10.0 mi Calm Calm - N/A   Clear
7:36 AM 30.2 °F 23.4 °F 24.8 °F 80% 29.35 in 10.0 mi NE 6.9 mph - N/A   Mostly Cloudy
7:56 AM 28.4 °F 17.5 °F 23.0 °F 80% 29.37 in 10.0 mi ENE 13.8 mph - N/A   Overcast
8:16 AM 24.8 °F 14.0 °F 19.4 °F 80% 29.39 in 10.0 mi ENE 11.5 mph 18.4 mph N/A   Overcast
8:36 AM 24.8 °F 13.4 °F 14.0 °F 64% 29.40 in 10.0 mi ENE 12.7 mph 19.6 mph N/A   Overcast
8:56 AM 23.0 °F 11.7 °F 12.2 °F 63% 29.42 in 10.0 mi ENE 11.5 mph - N/A   Overcast
9:16 AM 21.2 °F 10.1 °F 12.2 °F 68% 29.43 in 10.0 mi ENE 10.4 mph - N/A   Overcast
9:36 AM 21.2 °F 10.9 °F 14.0 °F 74% 29.44 in 10.0 mi East 9.2 mph - N/A   Overcast
9:56 AM 21.2 °F 10.9 °F 14.0 °F 74% 29.45 in 10.0 mi East 9.2 mph - N/A   Overcast
10:16 AM 21.2 °F 11.7 °F 10.4 °F 63% 29.46 in 10.0 mi East 8.1 mph - N/A   Overcast
10:36 AM 21.2 °F 10.1 °F 10.4 °F 63% 29.47 in 10.0 mi East 10.4 mph - N/A   Overcast
10:56 AM 21.2 °F 8.9 °F 12.2 °F 68% 29.48 in 10.0 mi ENE 12.7 mph - N/A   Overcast
11:16 AM 19.4 °F 7.2 °F 10.4 °F 68% 29.48 in 10.0 mi ENE 11.5 mph - N/A   Overcast
11:36 AM 21.2 °F 11.7 °F 8.6 °F 58% 29.49 in 10.0 mi ENE 8.1 mph - N/A   Overcast
11:56 AM 21.2 °F 10.1 °F 8.6 °F 58% 29.49 in 10.0 mi ENE 10.4 mph - N/A   Overcast
12:16 PM 21.2 °F 8.9 °F 6.8 °F 54% 29.51 in 10.0 mi ENE 12.7 mph - N/A   Overcast
12:36 PM 19.4 °F 7.2 °F 5.0 °F 54% 29.51 in 10.0 mi ENE 11.5 mph - N/A   Overcast
12:56 PM 19.4 °F 8.6 °F 3.2 °F 49% 29.50 in 10.0 mi ENE 9.2 mph - N/A   Overcast
1:16 PM 19.4 °F 7.2 °F 1.4 °F 46% 29.51 in 10.0 mi ENE 11.5 mph 20.7 mph N/A   Mostly Cloudy
1:36 PM 19.4 °F 7.2 °F -0.4 °F 42% 29.51 in 10.0 mi ENE 11.5 mph 18.4 mph N/A   Clear
1:56 PM 19.4 °F 6.6 °F 1.4 °F 46% 29.52 in 10.0 mi ENE 12.7 mph - N/A   Clear
2:16 PM 19.4 °F 8.6 °F 1.4 °F 46% 29.53 in 10.0 mi East 9.2 mph - N/A   Clear
2:36 PM 19.4 °F 9.5 °F 1.4 °F 46% 29.53 in 10.0 mi ENE 8.1 mph - N/A   Clear
2:56 PM 19.4 °F 11.5 °F 1.4 °F 46% 29.54 in 10.0 mi NE 5.8 mph - N/A   Clear
3:16 PM 19.4 °F 10.4 °F 1.4 °F 46% 29.54 in 10.0 mi NE 6.9 mph - N/A   Clear
3:36 PM 19.4 °F 10.4 °F 1.4 °F 46% 29.54 in 10.0 mi ENE 6.9 mph - N/A   Clear
3:56 PM 19.4 °F 8.6 °F -0.4 °F 42% 29.55 in 10.0 mi ENE 9.2 mph - N/A   Clear
4:16 PM 17.6 °F 8.2 °F -2.2 °F 42% 29.55 in 10.0 mi NE 6.9 mph - N/A   Clear
4:36 PM 17.6 °F 9.3 °F -0.4 °F 45% 29.56 in 10.0 mi ENE 5.8 mph - N/A   Clear
4:56 PM 15.8 °F 7.2 °F -2.2 °F 45% 29.56 in 10.0 mi ENE 5.8 mph - N/A   Clear
5:16 PM 15.8 °F 7.2 °F -2.2 °F 45% 29.57 in 10.0 mi ENE 5.8 mph - N/A   Clear
5:36 PM 14.0 °F 6.5 °F -4.0 °F 45% 29.58 in 10.0 mi ENE 4.6 mph - N/A   Clear
5:56 PM 12.2 °F - -5.8 °F 45% 29.58 in 10.0 mi Calm Calm - N/A   Clear
6:16 PM 10.4 °F - -2.2 °F 57% 29.59 in 10.0 mi Calm Calm - N/A   Clear
6:36 PM 6.8 °F - -4.0 °F 61% 29.59 in 10.0 mi Calm Calm - N/A   Clear
6:56 PM 6.8 °F - -5.8 °F 56% 29.60 in 10.0 mi Calm Calm - N/A   Clear
7:16 PM 3.2 °F - -7.6 °F 61% 29.60 in 10.0 mi Calm Calm - N/A   Clear
7:36 PM 3.2 °F - -5.8 °F 66% 29.60 in 10.0 mi Calm Calm - N/A   Clear
7:56 PM 1.4 °F - -5.8 °F 72% 29.60 in 10.0 mi Calm Calm - N/A   Clear
8:16 PM 1.4 °F - -7.6 °F 66% 29.61 in 10.0 mi Calm Calm - N/A   Clear
8:36 PM -0.4 °F -8.3 °F -5.8 °F 78% 29.62 in 10.0 mi East 3.5 mph - N/A   Clear
8:56 PM 1.4 °F - -5.8 °F 72% 29.62 in 10.0 mi Calm Calm - N/A   Clear
9:16 PM -0.4 °F - -7.6 °F 72% 29.62 in 10.0 mi Calm Calm - N/A   Clear
9:36 PM -2.2 °F -10.4 °F -9.4 °F 71% 29.63 in 10.0 mi ENE 3.5 mph - N/A   Clear
9:56 PM -4.0 °F -14.6 °F -11.2 °F 71% 29.63 in 10.0 mi East 4.6 mph - N/A   Clear
10:16 PM -4.0 °F - -9.4 °F 78% 29.63 in 10.0 mi Calm Calm - N/A   Clear
10:36 PM -5.8 °F - -11.2 °F 77% 29.64 in 10.0 mi Calm Calm - N/A   Clear
10:56 PM -5.8 °F - -11.2 °F 77% 29.64 in 10.0 mi Calm Calm - N/A   Clear
11:16 PM -5.8 °F -14.5 °F -9.4 °F 84% 29.64 in 10.0 mi NE 3.5 mph - N/A   Clear
11:36 PM -7.6 °F - -14.8 °F 71% 29.65 in 10.0 mi Calm Calm - N/A   Clear
11:56 PM -9.4 °F - -14.8 °F 77% 29.65 in 10.0 mi Calm Calm - N/A   Clear